| time (UTC) | temp F | wind direction | speed MPH | gust MPH | rain 1hr in | rain 24hr in | rain mn in | humidity % | barometer mb |
| 20260502220000 | 67 | 269 | 5.0 | 11.0 | 0.00 | 0.00 | 0.00 | 42 | 1018.8 |
| 20260502215433 | 66 | 276 | 5.0 | 11.0 | 0.00 | 0.00 | 0.00 | 40 | 1018.9 |
| 20260502214908 | 66 | 264 | 5.0 | 10.0 | 0.00 | 0.00 | 0.00 | 38 | 1019.0 |
| 20260502214404 | 66 | 252 | 4.0 | 10.0 | 0.00 | 0.00 | 0.00 | 40 | 1018.9 |
| 20260502213901 | 66 | 257 | 4.0 | 9.0 | 0.00 | 0.00 | 0.00 | 39 | 1018.9 |
| 20260502213358 | 66 | 248 | 5.0 | 12.0 | 0.00 | 0.00 | 0.00 | 39 | 1019.0 |
| 20260502213311 | 67 | 61 | 4.0 | 12.0 | 0.00 | 0.00 | 0.00 | 39 | 1019.0 |
| 20260502212305 | 67 | 259 | 4.0 | 9.0 | 0.00 | 0.00 | 0.00 | 41 | 1019.1 |
| 20260502211802 | 66 | 271 | 5.0 | 11.0 | 0.00 | 0.00 | 0.00 | 40 | 1019.0 |
| 20260502211234 | 67 | 270 | 5.0 | 16.0 | 0.00 | 0.00 | 0.00 | 42 | 1019.1 |
| 20260502210721 | 67 | 270 | 5.0 | 16.0 | 0.00 | 0.00 | 0.00 | 39 | 1019.0 |
| 20260502210222 | 67 | 240 | 5.0 | 13.0 | 0.00 | 0.00 | 0.00 | 44 | 1019.3 |
| 20260502210210 | 66 | 276 | 6.0 | 13.0 | 0.00 | 0.00 | 0.00 | 44 | 1019.2 |
| 20260502205214 | 66 | 224 | 6.0 | 14.0 | 0.00 | 0.00 | 0.00 | 41 | 1019.2 |
| 20260502204649 | 67 | 252 | 6.0 | 14.0 | 0.00 | 0.00 | 0.00 | 42 | 1019.4 |
| 20260502204120 | 67 | 266 | 5.0 | 14.0 | 0.00 | 0.00 | 0.00 | 39 | 1019.4 |
| 20260502204106 | 67 | 225 | 4.0 | 14.0 | 0.00 | 0.00 | 0.00 | 44 | 1019.4 |
| 20260502203111 | 67 | 272 | 4.0 | 13.0 | 0.00 | 0.00 | 0.00 | 37 | 1019.4 |
| 20260502202545 | 67 | 259 | 4.0 | 8.0 | 0.00 | 0.00 | 0.00 | 42 | 1019.4 |
| 20260502202042 | 67 | 290 | 4.0 | 9.0 | 0.00 | 0.00 | 0.00 | 45 | 1019.4 |
| 20260502201540 | 67 | 267 | 5.0 | 12.0 | 0.00 | 0.00 | 0.00 | 43 | 1019.5 |
| 20260502201012 | 67 | 237 | 6.0 | 12.0 | 0.00 | 0.00 | 0.00 | 41 | 1019.5 |
| 20260502200443 | 67 | 245 | 6.0 | 15.0 | 0.00 | 0.00 | 0.00 | 41 | 1019.5 |
| 20260502195942 | 67 | 237 | 4.0 | 15.0 | 0.00 | 0.00 | 0.00 | 41 | 1019.5 |
| 20260502195436 | 67 | 242 | 4.0 | 14.0 | 0.00 | 0.00 | 0.00 | 43 | 1019.4 |
| 20260502194935 | 66 | 245 | 6.0 | 14.0 | 0.00 | 0.00 | 0.00 | 40 | 1019.5 |
| 20260502194842 | 66 | 245 | 6.0 | 12.0 | 0.00 | 0.00 | 0.00 | 42 | 1019.6 |
| 20260502193903 | 66 | 204 | 6.0 | 12.0 | 0.00 | 0.00 | 0.00 | 45 | 1019.5 |
| 20260502193345 | 67 | 268 | 5.0 | 11.0 | 0.00 | 0.00 | 0.00 | 41 | 1019.6 |
| 20260502193336 | 67 | 285 | 5.0 | 11.0 | 0.00 | 0.00 | 0.00 | 43 | 1019.5 |
| 20260502192345 | 67 | 252 | 5.0 | 11.0 | 0.00 | 0.00 | 0.00 | 43 | 1019.6 |
| 20260502191847 | 66 | 214 | 5.0 | 11.0 | 0.00 | 0.00 | 0.00 | 46 | 1019.5 |
| 20260502191320 | 66 | 257 | 4.0 | 13.0 | 0.00 | 0.00 | 0.00 | 45 | 1019.6 |
| 20260502190818 | 66 | 267 | 6.0 | 13.0 | 0.00 | 0.00 | 0.00 | 41 | 1019.6 |
| 20260502190252 | 66 | 254 | 7.0 | 13.0 | 0.00 | 0.00 | 0.00 | 48 | 1019.5 |
| 20260502185725 | 66 | 248 | 7.0 | 13.0 | 0.00 | 0.00 | 0.00 | 42 | 1019.6 |
| 20260502185222 | 66 | 272 | 4.0 | 13.0 | 0.00 | 0.00 | 0.00 | 44 | 1019.6 |
| 20260502184714 | 66 | 260 | 4.0 | 13.0 | 0.00 | 0.00 | 0.00 | 47 | 1019.6 |
| 20260502184210 | 66 | 134 | 5.0 | 13.0 | 0.00 | 0.00 | 0.00 | 44 | 1019.8 |
| 20260502184142 | 66 | 154 | 4.0 | 10.0 | 0.00 | 0.00 | 0.00 | 44 | 1019.7 |
| 20260502183156 | 66 | 229 | 4.0 | 10.0 | 0.00 | 0.00 | 0.00 | 44 | 1019.8 |
| 20260502182656 | 66 | 259 | 5.0 | 10.0 | 0.00 | 0.00 | 0.00 | 43 | 1019.8 |
| 20260502182155 | 65 | 223 | 5.0 | 11.0 | 0.00 | 0.00 | 0.00 | 44 | 1020.1 |
| 20260502181652 | 65 | 266 | 5.0 | 12.0 | 0.00 | 0.00 | 0.00 | 45 | 1020.1 |
| 20260502181126 | 65 | 266 | 5.0 | 12.0 | 0.00 | 0.00 | 0.00 | 46 | 1020.1 |
| 20260502180612 | 65 | 236 | 6.0 | 14.0 | 0.00 | 0.00 | 0.00 | 45 | 1020.2 |
| 20260502170236 | 64 | 198 | 6.0 | 12.0 | 0.00 | 0.00 | 0.00 | 47 | 1020.7 |
| 20260502164110 | 64 | 248 | 5.0 | 14.0 | 0.00 | 0.00 | 0.00 | 48 | 1020.9 |
| 20260502163608 | 64 | 266 | 5.0 | 12.0 | 0.00 | 0.00 | 0.00 | 45 | 1020.7 |
| 20260502163039 | 64 | 212 | 3.0 | 10.0 | 0.00 | 0.00 | 0.00 | 45 | 1020.7 |
| 20260502162514 | 64 | 246 | 3.0 | 8.0 | 0.00 | 0.00 | 0.00 | 45 | 1020.7 |
| 20260502161946 | 64 | 179 | 3.0 | 11.0 | 0.00 | 0.00 | 0.00 | 45 | 1020.7 |
| 20260502161443 | 63 | 110 | 4.0 | 13.0 | 0.00 | 0.00 | 0.00 | 46 | 1020.7 |
| 20260502160916 | 64 | 108 | 3.0 | 10.0 | 0.00 | 0.00 | 0.00 | 44 | 1020.7 |
| 20260502160414 | 64 | 262 | 3.0 | 10.0 | 0.00 | 0.00 | 0.00 | 43 | 1020.7 |
| 20260502152154 | 62 | 159 | 2.0 | 9.0 | 0.00 | 0.00 | 0.00 | 47 | 1020.6 |
| 20260502151632 | 61 | 212 | 3.0 | 9.0 | 0.00 | 0.00 | 0.00 | 47 | 1020.5 |
| 20260502151114 | 61 | 149 | 4.0 | 9.0 | 0.00 | 0.00 | 0.00 | 48 | 1020.6 |
| 20260502150616 | 61 | 208 | 3.0 | 8.0 | 0.00 | 0.00 | 0.00 | 46 | 1020.7 |
| 20260502150103 | 61 | 199 | 3.0 | 10.0 | 0.00 | 0.00 | 0.00 | 48 | 1020.8 |
| 20260502130122 | 53 | 214 | 1.0 | 5.0 | 0.00 | 0.00 | 0.00 | 76 | 1019.8 |
| 20260502123036 | 51 | 256 | 1.0 | 4.0 | 0.00 | 0.00 | 0.00 | 79 | 1019.5 |
| 20260502123031 | 51 | 262 | 2.0 | 4.0 | 0.00 | 0.00 | 0.00 | 78 | 1019.4 |
| 20260502122006 | 51 | 240 | 2.0 | 4.0 | 0.00 | 0.00 | 0.00 | 78 | 1019.4 |
| 20260502121507 | 51 | 260 | 1.0 | 4.0 | 0.00 | 0.00 | 0.00 | 79 | 1019.4 |
| 20260502120950 | 51 | 294 | 1.0 | 3.0 | 0.00 | 0.00 | 0.00 | 80 | 1019.4 |
| 20260502120931 | 50 | 250 | 1.0 | 3.0 | 0.00 | 0.00 | 0.00 | 80 | 1019.3 |
| 20260502115925 | 50 | 262 | 1.0 | 3.0 | 0.00 | 0.00 | 0.00 | 80 | 1019.3 |
| 20260502115422 | 49 | 254 | 1.0 | 2.0 | 0.00 | 0.00 | 0.00 | 81 | 1019.3 |
| 20260502114855 | 49 | 264 | 1.0 | 3.0 | 0.00 | 0.00 | 0.00 | 81 | 1019.2 |
| 20260502114352 | 49 | 257 | 2.0 | 3.0 | 0.00 | 0.00 | 0.00 | 82 | 1019.2 |
| 20260502114309 | 48 | 254 | 2.0 | 6.0 | 0.00 | 0.00 | 0.00 | 82 | 1019.0 |
| 20260502113742 | 48 | 278 | 2.0 | 6.0 | 0.00 | 0.00 | 0.00 | 82 | 1019.0 |
| 20260502112752 | 48 | 288 | 1.0 | 3.0 | 0.00 | 0.00 | 0.00 | 83 | 1019.0 |
| 20260502112250 | 47 | 265 | 0.0 | 2.0 | 0.00 | 0.00 | 0.00 | 84 | 1019.0 |
| 20260502111721 | 47 | 246 | 0.0 | 1.0 | 0.00 | 0.00 | 0.00 | 85 | 1018.9 |
| 20260502111218 | 47 | 255 | 0.0 | 1.0 | 0.00 | 0.00 | 0.00 | 85 | 1018.8 |
| 20260502110653 | 47 | 256 | 0.0 | 1.0 | 0.00 | 0.00 | 0.00 | 86 | 1018.8 |
| 20260502110127 | 46 | 248 | 0.0 | 1.0 | 0.00 | 0.00 | 0.00 | 88 | 1018.8 |
| 20260502105622 | 46 | 248 | 0.0 | 1.0 | 0.00 | 0.00 | 0.00 | 89 | 1018.8 |
| 20260502105058 | 45 | 252 | 0.0 | 1.0 | 0.00 | 0.00 | 0.00 | 90 | 1018.7 |
| 20260502104553 | 45 | 252 | 0.0 | 1.0 | 0.00 | 0.00 | 0.00 | 91 | 1018.8 |
| 20260502104052 | 45 | 252 | 0.0 | 1.0 | 0.00 | 0.00 | 0.00 | 92 | 1018.7 |
| 20260502103541 | 44 | 252 | 0.0 | 0.0 | 0.00 | 0.00 | 0.00 | 92 | 1018.7 |
| 20260502103038 | 44 | 252 | 0.0 | 0.0 | 0.00 | 0.00 | 0.00 | 92 | 1018.6 |
| 20260502102514 | 44 | 252 | 0.0 | 0.0 | 0.00 | 0.00 | 0.00 | 93 | 1018.6 |
| 20260502101945 | 44 | 252 | 0.0 | 1.0 | 0.00 | 0.00 | 0.00 | 93 | 1018.6 |
| 20260502101441 | 44 | 252 | 0.0 | 2.0 | 0.00 | 0.00 | 0.00 | 93 | 1018.6 |
| 20260502100919 | 44 | 252 | 0.0 | 2.0 | 0.00 | 0.00 | 0.00 | 93 | 1018.6 |
| 20260502100904 | 43 | 89 | 0.0 | 0.0 | 0.00 | 0.00 | 0.00 | 93 | 1018.6 |
| 20260502100347 | 43 | 89 | 0.0 | 0.0 | 0.00 | 0.00 | 0.00 | 92 | 1018.5 |
| 20260502091217 | 44 | 89 | 0.0 | 0.0 | 0.00 | 0.00 | 0.00 | 92 | 1018.2 |
| 20260502090206 | 44 | 89 | 0.0 | 0.0 | 0.00 | 0.00 | 0.00 | 92 | 1018.1 |
| 20260502071128 | 42 | 89 | 0.0 | 0.0 | 0.00 | 0.00 | 0.00 | 89 | 1018.2 |
| 20260502070626 | 42 | 89 | 0.0 | 0.0 | 0.00 | 0.00 | 0.00 | 90 | 1018.2 |
| 20260502070058 | 42 | 89 | 0.0 | 0.0 | 0.00 | 0.00 | 0.00 | 89 | 1018.2 |
| 20260502065554 | 42 | 89 | 0.0 | 0.0 | 0.00 | 0.00 | 0.00 | 89 | 1018.1 |
| 20260502065051 | 42 | 89 | 0.0 | 0.0 | 0.00 | 0.00 | 0.00 | 89 | 1018.0 |
| 20260502064541 | 42 | 89 | 0.0 | 0.0 | 0.00 | 0.00 | 0.00 | 89 | 1018.1 |
| 20260502064017 | 42 | 89 | 0.0 | 0.0 | 0.00 | 0.00 | 0.00 | 89 | 1018.1 |
| 20260502063446 | 42 | 89 | 0.0 | 0.0 | 0.00 | 0.00 | 0.00 | 89 | 1018.0 |
| 20260502062942 | 42 | 89 | 0.0 | 0.0 | 0.00 | 0.00 | 0.00 | 88 | 1018.0 |
| 20260502062439 | 42 | 89 | 0.0 | 0.0 | 0.00 | 0.00 | 0.00 | 87 | 1018.0 |
| 20260502061936 | 42 | 89 | 0.0 | 0.0 | 0.00 | 0.00 | 0.00 | 86 | 1018.0 |
| 20260502061432 | 43 | 89 | 0.0 | 0.0 | 0.00 | 0.00 | 0.00 | 86 | 1018.1 |
| 20260502061427 | 43 | 89 | 0.0 | 0.0 | 0.00 | 0.00 | 0.00 | 87 | 1018.0 |
| 20260502060403 | 43 | 89 | 0.0 | 0.0 | 0.00 | 0.00 | 0.00 | 86 | 1018.1 |
| 20260502055900 | 44 | 89 | 0.0 | 0.0 | 0.00 | 0.00 | 0.00 | 86 | 1018.2 |
| 20260502055825 | 44 | 89 | 0.0 | 0.0 | 0.00 | 0.00 | 0.00 | 86 | 1018.2 |
| 20260502054806 | 44 | 89 | 0.0 | 0.0 | 0.00 | 0.00 | 0.00 | 85 | 1018.0 |
| 20260502054300 | 44 | 89 | 0.0 | 0.0 | 0.00 | 0.00 | 0.00 | 85 | 1018.0 |
| 20260502053757 | 44 | 89 | 0.0 | 0.0 | 0.00 | 0.00 | 0.00 | 85 | 1018.1 |
| 20260502053232 | 44 | 89 | 0.0 | 0.0 | 0.00 | 0.00 | 0.00 | 84 | 1018.1 |
| 20260502053144 | 44 | 89 | 0.0 | 0.0 | 0.00 | 0.00 | 0.00 | 83 | 1018.0 |
| 20260502052638 | 44 | 89 | 0.0 | 0.0 | 0.00 | 0.00 | 0.00 | 82 | 1018.0 |
| 20260502051658 | 45 | 89 | 0.0 | 0.0 | 0.00 | 0.00 | 0.00 | 82 | 1018.2 |
| 20260502051152 | 45 | 89 | 0.0 | 0.0 | 0.00 | 0.00 | 0.00 | 82 | 1018.2 |
| 20260502050649 | 45 | 89 | 0.0 | 0.0 | 0.00 | 0.00 | 0.00 | 81 | 1018.3 |
| 20260502050147 | 45 | 89 | 0.0 | 0.0 | 0.00 | 0.00 | 0.00 | 82 | 1018.2 |
| 20260502045644 | 45 | 89 | 0.0 | 0.0 | 0.00 | 0.00 | 0.00 | 82 | 1018.2 |
| 20260502045117 | 46 | 89 | 0.0 | 0.0 | 0.00 | 0.00 | 0.00 | 81 | 1018.1 |
| 20260502044551 | 46 | 89 | 0.0 | 0.0 | 0.00 | 0.00 | 0.00 | 80 | 1018.2 |
| 20260502044516 | 46 | 89 | 0.0 | 0.0 | 0.00 | 0.00 | 0.00 | 80 | 1018.2 |
| 20260502043943 | 46 | 89 | 0.0 | 0.0 | 0.00 | 0.00 | 0.00 | 80 | 1018.2 |
| 20260502042932 | 46 | 89 | 0.0 | 0.0 | 0.00 | 0.00 | 0.00 | 78 | 1018.2 |
| 20260502042405 | 46 | 89 | 0.0 | 0.0 | 0.00 | 0.00 | 0.00 | 78 | 1018.1 |
| 20260502042318 | 47 | 89 | 0.0 | 0.0 | 0.00 | 0.00 | 0.00 | 78 | 1018.0 |
| 20260502041315 | 47 | 89 | 0.0 | 0.0 | 0.00 | 0.00 | 0.00 | 76 | 1018.2 |
| 20260502040745 | 47 | 89 | 0.0 | 0.0 | 0.00 | 0.00 | 0.00 | 76 | 1018.2 |
| 20260502040705 | 47 | 89 | 0.0 | 0.0 | 0.00 | 0.00 | 0.00 | 73 | 1018.1 |
| 20260502035650 | 47 | 89 | 0.0 | 0.0 | 0.00 | 0.00 | 0.00 | 73 | 1018.2 |
| 20260502035148 | 48 | 89 | 0.0 | 0.0 | 0.00 | 0.00 | 0.00 | 71 | 1018.3 |
| 20260502034638 | 48 | 89 | 0.0 | 0.0 | 0.00 | 0.00 | 0.00 | 71 | 1018.3 |
| 20260502034113 | 49 | 89 | 0.0 | 0.0 | 0.00 | 0.00 | 0.00 | 71 | 1018.2 |
| 20260502033544 | 49 | 89 | 0.0 | 0.0 | 0.00 | 0.00 | 0.00 | 71 | 1018.3 |
| 20260502033524 | 49 | 89 | 0.0 | 0.0 | 0.00 | 0.00 | 0.00 | 71 | 1018.2 |
| 20260502032516 | 49 | 89 | 0.0 | 0.0 | 0.00 | 0.00 | 0.00 | 70 | 1018.3 |
| 20260502032013 | 49 | 89 | 0.0 | 0.0 | 0.00 | 0.00 | 0.00 | 70 | 1018.2 |
| 20260502031511 | 50 | 89 | 0.0 | 0.0 | 0.00 | 0.00 | 0.00 | 68 | 1018.3 |
| 20260502030951 | 50 | 89 | 0.0 | 0.0 | 0.00 | 0.00 | 0.00 | 71 | 1018.1 |
| 20260502030450 | 50 | 89 | 0.0 | 0.0 | 0.00 | 0.00 | 0.00 | 68 | 1018.1 |
| 20260502025947 | 50 | 89 | 0.0 | 0.0 | 0.00 | 0.00 | 0.00 | 66 | 1018.1 |
| 20260502025936 | 50 | 89 | 0.0 | 0.0 | 0.00 | 0.00 | 0.00 | 65 | 1018.2 |
| 20260502024945 | 51 | 89 | 0.0 | 0.0 | 0.00 | 0.00 | 0.00 | 65 | 1018.2 |
| 20260502024445 | 51 | 89 | 0.0 | 0.0 | 0.00 | 0.00 | 0.00 | 65 | 1018.1 |
| 20260502023942 | 51 | 89 | 0.0 | 0.0 | 0.00 | 0.00 | 0.00 | 65 | 1018.1 |
| 20260502023415 | 51 | 89 | 0.0 | 0.0 | 0.00 | 0.00 | 0.00 | 65 | 1018.1 |
| 20260502022916 | 51 | 89 | 0.0 | 0.0 | 0.00 | 0.00 | 0.00 | 62 | 1018.0 |
| 20260502022242 | 52 | 87 | 0.0 | 0.0 | 0.00 | 0.00 | 0.00 | 61 | 1018.0 |
| 20260502021730 | 52 | 87 | 0.0 | 0.0 | 0.00 | 0.00 | 0.00 | 62 | 1017.9 |
| 20260502021231 | 52 | 87 | 0.0 | 0.0 | 0.00 | 0.00 | 0.00 | 59 | 1017.9 |
| 20260502020705 | 53 | 87 | 0.0 | 0.0 | 0.00 | 0.00 | 0.00 | 57 | 1017.9 |
| 20260502020201 | 53 | 87 | 0.0 | 0.0 | 0.00 | 0.00 | 0.00 | 56 | 1017.9 |
| 20260502015636 | 54 | 87 | 0.0 | 0.0 | 0.00 | 0.00 | 0.00 | 53 | 1017.8 |
| 20260502015558 | 54 | 87 | 0.0 | 0.0 | 0.00 | 0.00 | 0.00 | 52 | 1017.8 |
| 20260502014605 | 55 | 87 | 0.0 | 0.0 | 0.00 | 0.00 | 0.00 | 52 | 1017.7 |
| 20260502014037 | 56 | 87 | 0.0 | 0.0 | 0.00 | 0.00 | 0.00 | 50 | 1017.7 |
| 20260502014028 | 56 | 87 | 0.0 | 0.0 | 0.00 | 0.00 | 0.00 | 50 | 1017.6 |
| 20260502013034 | 57 | 87 | 0.0 | 0.0 | 0.00 | 0.00 | 0.00 | 50 | 1017.5 |
| 20260502012522 | 57 | 87 | 0.0 | 0.0 | 0.00 | 0.00 | 0.00 | 49 | 1017.5 |
| 20260502012020 | 58 | 87 | 0.0 | 0.0 | 0.00 | 0.00 | 0.00 | 48 | 1017.5 |
| 20260502011515 | 58 | 87 | 0.0 | 1.0 | 0.00 | 0.00 | 0.00 | 47 | 1017.3 |
| 20260502010959 | 59 | 87 | 0.0 | 1.0 | 0.00 | 0.00 | 0.00 | 46 | 1017.3 |
| 20260502010931 | 59 | 91 | 0.0 | 1.0 | 0.00 | 0.00 | 0.00 | 46 | 1017.3 |
| 20260502005949 | 59 | 91 | 0.0 | 1.0 | 0.00 | 0.00 | 0.00 | 45 | 1017.3 |
| 20260502005935 | 60 | 90 | 0.0 | 1.0 | 0.00 | 0.00 | 0.00 | 44 | 1017.1 |
| 20260502004922 | 60 | 89 | 0.0 | 3.0 | 0.00 | 0.00 | 0.00 | 44 | 1016.9 |
| 20260502004355 | 61 | 62 | 1.0 | 4.0 | 0.00 | 0.00 | 0.00 | 42 | 1016.8 |
| 20260502003830 | 62 | 20 | 0.0 | 4.0 | 0.00 | 0.00 | 0.00 | 42 | 1016.7 |
| 20260502003815 | 62 | 208 | 0.0 | 2.0 | 0.00 | 0.00 | 0.00 | 42 | 1016.7 |
| 20260502002821 | 62 | 114 | 1.0 | 4.0 | 0.00 | 0.00 | 0.00 | 41 | 1016.6 |
| 20260502002257 | 62 | 142 | 1.0 | 4.0 | 0.00 | 0.00 | 0.00 | 40 | 1016.5 |
| 20260502001755 | 63 | 102 | 1.0 | 3.0 | 0.00 | 0.00 | 0.00 | 41 | 1016.4 |
| 20260502001256 | 62 | 114 | 2.0 | 5.0 | 0.00 | 0.00 | 0.00 | 41 | 1016.4 |
| 20260502000754 | 62 | 140 | 2.0 | 10.0 | 0.00 | 0.00 | 0.00 | 40 | 1016.2 |
| 20260502000233 | 62 | 105 | 3.0 | 10.0 | 0.00 | 0.00 | 0.00 | 41 | 1016.1 |
| 20260501235732 | 62 | 86 | 4.0 | 10.0 | 0.00 | 0.00 | 0.00 | 40 | 1016.1 |
| 20260501235228 | 62 | 252 | 4.0 | 10.0 | 0.00 | 0.00 | 0.00 | 40 | 1016.0 |
| 20260501234724 | 62 | 56 | 3.0 | 10.0 | 0.00 | 0.00 | 0.00 | 40 | 1016.0 |
| 20260501234219 | 62 | 70 | 3.0 | 9.0 | 0.00 | 0.00 | 0.00 | 40 | 1016.1 |
| 20260501233716 | 62 | 60 | 3.0 | 8.0 | 0.00 | 0.00 | 0.00 | 40 | 1016.1 |
| 20260501233150 | 63 | 151 | 3.0 | 10.0 | 0.00 | 0.00 | 0.00 | 39 | 1016.1 |
| 20260501232624 | 63 | 115 | 3.0 | 11.0 | 0.00 | 0.00 | 0.00 | 38 | 1016.2 |
| 20260501232058 | 63 | 28 | 2.0 | 11.0 | 0.00 | 0.00 | 0.00 | 38 | 1016.2 |
| 20260501232026 | 64 | 176 | 3.0 | 10.0 | 0.00 | 0.00 | 0.00 | 38 | 1016.2 |
| 20260501231440 | 64 | 148 | 3.0 | 10.0 | 0.00 | 0.00 | 0.00 | 37 | 1016.2 |
| 20260501230458 | 64 | 199 | 3.0 | 11.0 | 0.00 | 0.00 | 0.00 | 37 | 1016.2 |
| 20260501230423 | 64 | 142 | 3.0 | 11.0 | 0.00 | 0.00 | 0.00 | 37 | 1016.1 |
| 20260501225909 | 64 | 4 | 4.0 | 9.0 | 0.00 | 0.00 | 0.00 | 37 | 1016.1 |
| 20260501224900 | 64 | 243 | 4.0 | 12.0 | 0.00 | 0.00 | 0.00 | 37 | 1016.1 |
| 20260501224353 | 64 | 53 | 5.0 | 12.0 | 0.00 | 0.00 | 0.00 | 37 | 1016.0 |
| 20260501223824 | 65 | 97 | 4.0 | 12.0 | 0.00 | 0.00 | 0.00 | 35 | 1016.0 |
| 20260501223321 | 66 | 193 | 3.0 | 12.0 | 0.00 | 0.00 | 0.00 | 34 | 1015.9 |
| 20260501222754 | 66 | 84 | 3.0 | 6.0 | 0.00 | 0.00 | 0.00 | 35 | 1015.8 |
| 20260501222226 | 66 | 175 | 2.0 | 7.0 | 0.00 | 0.00 | 0.00 | 37 | 1015.8 |
| 20260501221724 | 66 | 260 | 3.0 | 8.0 | 0.00 | 0.00 | 0.00 | 36 | 1015.8 |
| 20260501221158 | 66 | 224 | 4.0 | 14.0 | 0.00 | 0.00 | 0.00 | 37 | 1015.8 |
| 20260501220651 | 66 | 63 | 3.0 | 14.0 | 0.00 | 0.00 | 0.00 | 36 | 1015.7 |